STARLINK-2145 (48555 NORAD) Tracking and Keplerian Element Data

This shows tracking and keplerian element data for the satellite.

Feedback or suggestion? Click here.




ElementValue
Catalog48555
NameSTARLINK-2145
Epoch Orbit1236
Epoch Day215.1426733
Epoch Year2021
RAAN121.3889
Inclination53.0556
Eccentricity0.0001797
Argument of Perigee85.5478
Mean Anonmoly274.5716
Mean Motion15.0639207
Decay Rate1.302E-05
L11 48555U 21041C 21215.14267330 .00001302 00000-0 10632-3 0 9993
L22 48555 53.0556 121.3889 0001797 85.5478 274.5716 15.06392070 12363

Live tracking and technical data element details for STARLINK-2145 (NORAD 48555). STARLINK-2145 can be tracked NOW for your location showing map with azimuth and elevation plus other details from your city location.

Track the satellite on the map from your city or location and see movement details for azimuth, elevation, latitude, longitude, range, height, and movement on the map or in text.







IsCatalogInMostPopularTable: catalog: 48555, numindb: 21
Update: records affected: 1



GetName: 48555 STARLINK-2145

Hit Count: updated at: Wed, 04 Aug 2021 00:56:18 GMT